This demonstration page uses our WeatherBlox Daily Observations layout. Learn more.

Left ArrowRight Arrow

38.89511, -77.03637

Hourly Observations for May 7, 2017

Temp ( °F °C ) Dew Point ( °F °C ) Humidity (%) Winds ( mph kmh ) Pressure ( in mb ) Visibility ( mi km ) Precip ( " mm )
12:52 am 00:52 Mostly Clear 50 10 43 6.1 77 77 WSW 7 11 29.63 1003 10 16 0.00 0.00
1:52 am 01:52 Partly Cloudy 51 10.6 42 5.6 71 71 WSW 10 17 29.64 1004 10 16 0.00 0.00
2:52 am 02:52 Mostly Clear 50 10 41 5 71 71 WSW 10 17 29.65 1004 10 16 0.00 0.00
3:52 am 03:52 Mostly Clear 48 8.9 41 5 77 77 SW 7 11 29.66 1004 10 16 0.00 0.00
4:52 am 04:52 Mostly Clear 47 8.3 40 4.4 77 77 SW 6 9 29.67 1005 10 16 0.00 0.00
5:52 am 05:52 Partly Cloudy 46 7.8 41 5 83 83 SW 7 11 29.69 1006 10 16 0.00 0.00
6:52 am 06:52 Partly Cloudy 49 9.4 40 4.4 71 71 W 9 15 29.72 1006 10 16 0.00 0.00
7:52 am 07:52 Mostly Cloudy 52 11.1 40 4.4 64 64 W 10 17 29.75 1007 10 16 0.00 0.00
8:52 am 08:52 Mostly Cloudy 54 12.2 39 3.9 57 57 WNW 20 31 29.76 1008 10 16 0.00 0.00
9:52 am 09:52 Mostly Cloudy 55 12.8 38 3.3 53 53 WNW 14 22 29.78 1008 10 16 0.00 0.00
10:52 am 10:52 Mostly Cloudy 58 14.4 39 3.9 50 50 WNW 18 30 29.79 1009 10 16 0.00 0.00
11:52 am 11:52 Mostly Cloudy 59 15 38 3.3 46 46 NW 22 35 29.79 1009 10 16 0.00 0.00
12:52 pm 12:52 Cloudy 58 14.4 37 2.8 46 46 WNW 15 24 29.78 1009 10 16 0.00 0.00
1:52 pm 13:52 Mostly Cloudy 62 16.7 38 3.3 41 41 W 15 24 29.78 1008 10 16 0.00 0.00
2:52 pm 14:52 Mostly Cloudy 64 17.8 36 2.2 35 35 WNW 13 20 29.77 1008 10 16 0.00 0.00
3:52 pm 15:52 Mostly Cloudy 62 16.7 34 1.1 35 35 NW 15 24 29.75 1008 10 16 0.00 0.00
4:52 pm 16:52 Mostly Cloudy 64 17.8 36 2.2 35 35 WNW 15 24 29.75 1007 10 16 0.00 0.00
5:52 pm 17:52 Partly Cloudy 60 15.6 35 1.7 39 39 W 10 17 29.77 1008 10 16 0.00 0.03
6:52 pm 18:52 Mostly Cloudy 61 16.1 37 2.8 41 41 W 14 22 29.79 1009 10 16 0.00 0.00
7:52 pm 19:52 Mostly Cloudy 59 15 36 2.2 42 42 W 14 22 29.81 1010 10 16 0.00 0.00
8:52 pm 20:52 Cloudy 58 14.4 36 2.2 44 44 W 13 20 29.84 1010 10 16 0.00 0.03
9:52 pm 21:52 Cloudy 57 13.9 36 2.2 45 45 W 9 15 29.86 1011 10 16 0.00 0.00
10:52 pm 22:52 Cloudy 57 13.9 33 0.6 41 41 WNW 13 20 29.87 1012 10 16 0.00 0.00
11:52 pm 23:52 Cloudy 56 13.3 34 1.1 44 44 NW 13 20 29.89 1012 10 16 0.00 0.00

Powered by AerisWeather